ORBVIEW 2 (SEASTAR) (24883 NORAD) Tracking and Keplerian Element Data

This shows tracking and keplerian element data for the satellite.

Feedback or suggestion? Click here.




ElementValue
Catalog24883
NameORBVIEW 2 (SEASTAR)
Epoch Orbit12594
Epoch Day319.93430628
Epoch Year2018
RAAN67.6133
Inclination98.5727
Eccentricity0.000279
Argument of Perigee41.9315
Mean Anonmoly318.2082
Mean Motion14.33478224
Decay Rate3E-07
L11 24883U 97037A 18319.93430628 .00000030 00000-0 26630-4 0 9992
L22 24883 98.5727 67.6133 0002790 41.9315 318.2082 14.33478224125945

Live tracking and technical data element details for ORBVIEW 2 (SEASTAR) (NORAD 24883). ORBVIEW 2 (SEASTAR) can be tracked NOW for your location showing map with azimuth and elevation plus other details from your city location.

Track the satellite on the map from your city or location and see movement details for azimuth, elevation, latitude, longitude, range, height, and movement on the map or in text.







IsCatalogInMostPopularTable: catalog: 24883, numindb: 48
Update: records affected: 1



GetName: 24883 ORBVIEW 2 (SEASTAR)

Hit Count: updated at: Fri, 16 Nov 2018 06:18:57 GMT